Terminal Aerodrome Forecast
Issued by NWS

Home | Current Version | Previous Version | Text Only | Print | Product List | Glossary On
Versions: 1 2 3 4 5 6 7 8 9 10 11 12 13 14 15 16
264
FTUS41 KCAR 271735
TAFPQI
TAF
KPQI 271735Z 2718/2818 18008KT P6SM OVC070
     FM272100 19007KT P6SM VCTS OVC060CB
      TEMPO 2721/2723 2SM +SHRA OVC025
     FM280000 VRB03KT 3SM SHRA OVC035
     FM280400 VRB03KT 6SM -SHRA OVC030
     FM280700 16004KT 3SM -SHRA OVC008=

USA.gov is the U.S. government's official web portal to all federal, state and local government web resources and services.